Regional Weather Roundup
Issued by NWS Green Bay, WI

Home | Current Version | Previous Version | Graphics & Text | Print | Product List | Glossary Off
Versions: 1 2 3 4 5 6 7 8 9 10 11 12 13 14 15 16 17 18 19 20 21 22 23 24 25 26 27 28 29 30 31 32 33 34 35 36 37 38 39 40 41 42 43 44 45 46 47 48 49 50

000
ASUS43 KGRB 292010
RWRGRB

NORTH-CENTRAL AND NORTHEAST WISCONSIN REGIONAL WEATHER ROUNDUP
NATIONAL WEATHER SERVICE GREEN BAY WI
300 PM CDT TUE JUL 29 2014

WIZ005-009-010>012-018-019-292100-
NORTH CENTRAL WISCONSIN

CITY           SKY/WX    TMP DP  RH WIND       PRES   REMARKS
IRONWOOD       NOT AVBL
MANITOWISH WTR MOSUNNY   70  54  57 NW8G16    30.00F
ARBOR VITAE    MOSUNNY   76  59  55 W10G16    30.00F
EAGLE RIVER    LGT RAIN  63  56  79 NE5       30.00S
LAND O LAKES   PTSUNNY   69  52  55 N6        30.01F
RHINELANDER    LGT RAIN  70  56  61 VRB3      30.00F
PHILLIPS       MOSUNNY   73  57  58 W9        30.01F THUNDER
ANTIGO         MOSUNNY   73  56  57 W15G21    29.99F
TOMAHAWK       MOSUNNY   74  55  51 W7G17     30.00F
MERRILL        MOSUNNY   75  56  52 W9        30.00F
$$

WIZ013-073-292100-
NORTHEAST WISCONSIN

CITY           SKY/WX    TMP DP  RH WIND       PRES   REMARKS
IRON MOUNTAIN  NOT AVBL
MARINETTE      MOSUNNY   72  61  68 NW5       29.95F
OCONTO         MOSUNNY   75  56  50 W7        29.95F
$$

WIZ017-030-035>037-045-292100-
CENTRAL WISCONSIN

CITY           SKY/WX    TMP DP  RH WIND       PRES   REMARKS
MEDFORD        PTSUNNY   69  56  63 W9G21     30.03F THUNDER
WAUSAU         MOSUNNY   76  53  44 NW16G23   29.99F
MOSINEE        NOT AVBL
MARSHFIELD     MOSUNNY   77  54  44 W9        30.02F
WISC RAPIDS    PTSUNNY   78  53  41 W13       30.03F
STEVENS POINT  MOSUNNY   74  53  47 W9G18     30.02F
WAUPACA        PTSUNNY   80  51  37 NW10      30.00F
SHAWANO        MOSUNNY   78  55  45 NW9G16    29.97F
CLINTONVILLE   PTSUNNY   77  50  38 NW13      29.98F
$$

WIZ038-039-048-051-292100-
FOX VALLEY

CITY           SKY/WX    TMP DP  RH WIND       PRES   REMARKS
NWS GREEN BAY  TSTM      70  62  76 NE14      29.98S
APPLETON       PTSUNNY   75  52  43 NW12G23   29.99F
OSHKOSH        SUNNY     77  54  44 N13       29.99F
FOND DU LAC    MOSUNNY   78  54  43 W15       30.00S
$$

WIZ022-050-052-292100-
EAST CENTRAL WISCONSIN

CITY           SKY/WX    TMP DP  RH WIND       PRES   REMARKS
STURGEON BAY   PTSUNNY   64  59  82 W6        29.98S
MANITOWOC      PTSUNNY   76  54  46 N12       29.97F
SHEBOYGAN      SUNNY     76  55  48 NW10      29.99S
$$

LMZ563-521-522-541>543-292100-
LAKESHORE

STATION/POSITION TIME  TEMP    WIND        PRES    VSBY  WAVE
                       AIR SEA DIR/SP/G                  HT/PER
                 (UTC) (F)     (DEG/KT/KT) (MB)    (MI)  (FT/S)
SHEBOYGAN LKSHOR 2000   75     290/ 13/ 16 1015.1F
KEWAUNEE LKSHORE 2000   58     150/  3/  7 1015.9S
ALGOMA MARINA    2000          230/  9/ 10   N/A
NORTHPORT PIER   2000   68      CALM  /  2 1014.6S
N MID LAKE BUOY  2000   58 56  240/  4/  6 1014.5R         1
S GREEN BAY BUOY 2000   69 67  310/  8     1015.6F
SISTER BAY LKSHO 1900   73        CALM       N/A
CHAMBERS ISLAND  2000   67     160/  2/  6 1014.9R
MENOMINEE LKSHOR 2000   68     320/  3/  5 1015.0F
$$


USA.gov is the U.S. government's official web portal to all federal, state and local government web resources and services.